This is the latest recevied weather packets stored in our database for station/object WX5RP. If no packets are shown the sender has not sent any weather packets the latest 10 day(s).
| Time | Temp. | Humidity | Pressure | Rain* | Wind** | Luminosity | Snow |
|---|---|---|---|---|---|---|---|
| 1777398316 | 12.22° C | 28% | 1021.3 hPa | 0 mm | - | 838 W/m² | - |
| 1777397715 | 11.67° C | 28% | 1021.4 hPa | 0 mm | - | 817 W/m² | - |
| 1777397115 | 11.67° C | 27% | 1022.1 hPa | 0 mm | - | 795 W/m² | - |
| 1777396515 | 11.67° C | 27% | 1022.4 hPa | 0 mm | - | 770 W/m² | - |
| 1777395916 | 11.11° C | 29% | 1021.1 hPa | 0 mm | - | 748 W/m² | - |
| 1777395316 | 10.56° C | 31% | 1021.8 hPa | 0 mm | - | 721 W/m² | - |
| 1777394717 | 10° C | 30% | 1021.5 hPa | 0 mm | - | 694 W/m² | - |
| 1777394117 | 9.44° C | 34% | 1021.6 hPa | 0 mm | - | 666 W/m² | - |
| 1777393517 | 8.89° C | 38% | 1022.1 hPa | 0 mm | - | 636 W/m² | - |
| 1777392917 | 8.33° C | 44% | 1022.1 hPa | 0 mm | - | 605 W/m² | - |
| 1777392318 | 7.78° C | 48% | 1021.6 hPa | 0 mm | - | 573 W/m² | - |
| 1777391715 | 6.67° C | 52% | 1021.7 hPa | 0 mm | - | 542 W/m² | - |
| 1777391117 | 5.56° C | 58% | 1021.4 hPa | 0 mm | - | 510 W/m² | - |
| 1777390517 | 5° C | 60% | 1021.7 hPa | 0 mm | - | 475 W/m² | - |
| 1777389917 | 4.44° C | 62% | 1022 hPa | 0 mm | - | 441 W/m² | - |
| 1777389317 | 3.89° C | 66% | 1022 hPa | 0 mm | - | 407 W/m² | - |
| 1777388718 | 2.78° C | 70% | 1021.6 hPa | 0 mm | - | 370 W/m² | - |
| 1777388117 | 1.67° C | 76% | 1022 hPa | 0 mm | - | 332 W/m² | - |
| 1777387517 | 0.56° C | 79% | 1021.7 hPa | 0 mm | - | 296 W/m² | - |
| 1777386916 | -0.56° C | 81% | 1021.8 hPa | 0 mm | - | 258 W/m² | - |
| 1777386317 | -1.67° C | 82% | 1022.1 hPa | 0 mm | - | 215 W/m² | - |
| 1777385716 | -2.22° C | 83% | 1022.1 hPa | 0 mm | - | 163 W/m² | - |
| 1777385116 | -3.89° C | 83% | 1020.6 hPa | 0 mm | - | 139 W/m² | - |
| 1777384516 | -3.89° C | 83% | 1020.8 hPa | 0 mm | - | 108 W/m² | - |
| 1777383916 | -4.44° C | 83% | 1020.8 hPa | 0 mm | - | 81 W/m² | - |
* Rain latest hour (hover to see other rain measurements)
** Current wind speed in m/s (hover to see current wind gust speed)